TimeEDT,TemperatureF,Dew PointF,Humidity,Sea Level PressureIn,VisibilityMPH,Wind Direction,Wind SpeedMPH,Gust SpeedMPH,PrecipitationIn,Events,Conditions,WindDirDegrees,DateUTC
12:54 AM,75.9,70.0,82,29.83,10.0,North,6.9,-,N/A,,Clear,10,2013-07-25 04:54:00
1:54 AM,75.0,69.1,82,29.82,10.0,NNW,4.6,-,N/A,,Partly Cloudy,340,2013-07-25 05:54:00
2:54 AM,73.9,70.0,87,29.79,10.0,Calm,Calm,-,N/A,,Clear,0,2013-07-25 06:54:00
3:54 AM,73.0,68.0,84,29.78,10.0,ENE,6.9,-,N/A,,Clear,70,2013-07-25 07:54:00
4:54 AM,72.0,68.0,87,29.80,10.0,NNW,6.9,-,N/A,,Clear,340,2013-07-25 08:54:00
5:54 AM,72.0,69.1,91,29.82,10.0,North,3.5,-,N/A,,Clear,350,2013-07-25 09:54:00
6:54 AM,73.0,70.0,90,29.84,8.0,NE,5.8,-,N/A,,Scattered Clouds,40,2013-07-25 10:54:00
7:05 AM,73.4,69.8,88,29.85,8.0,Variable,3.5,-,N/A,,Mostly Cloudy,0,2013-07-25 11:05:00
7:24 AM,73.4,69.8,88,29.86,8.0,NNE,5.8,-,0.00,,Overcast,20,2013-07-25 11:24:00
7:43 AM,73.4,69.8,88,29.87,8.0,NNE,5.8,-,0.00,,Scattered Clouds,20,2013-07-25 11:43:00
7:54 AM,73.9,70.0,87,29.86,8.0,NE,6.9,-,0.00,,Clear,50,2013-07-25 11:54:00
8:54 AM,75.9,69.1,79,29.87,10.0,NE,8.1,-,N/A,,Partly Cloudy,40,2013-07-25 12:54:00
9:54 AM,80.1,70.0,71,29.87,10.0,NE,8.1,-,N/A,,Scattered Clouds,40,2013-07-25 13:54:00
10:47 AM,80.6,69.8,70,29.90,10.0,North,8.1,-,N/A,,Mostly Cloudy,360,2013-07-25 14:47:00
10:54 AM,81.0,70.0,69,29.90,10.0,North,9.2,-,N/A,,Mostly Cloudy,350,2013-07-25 14:54:00
11:17 AM,82.4,69.8,66,29.90,10.0,North,5.8,-,N/A,,Scattered Clouds,350,2013-07-25 15:17:00
11:49 AM,82.4,69.8,66,29.91,10.0,NNE,11.5,-,N/A,,Mostly Cloudy,20,2013-07-25 15:49:00
11:54 AM,82.9,69.1,63,29.91,10.0,NE,11.5,-,N/A,,Mostly Cloudy,40,2013-07-25 15:54:00
12:30 PM,82.4,69.8,66,29.92,10.0,NNE,9.2,-,N/A,,Overcast,20,2013-07-25 16:30:00
12:54 PM,84.0,70.0,63,29.91,10.0,North,10.4,-,N/A,,Overcast,10,2013-07-25 16:54:00
1:54 PM,84.9,70.0,61,29.91,10.0,North,9.2,-,N/A,,Mostly Cloudy,360,2013-07-25 17:54:00
2:54 PM,86.0,68.0,55,29.91,10.0,North,9.2,-,N/A,,Mostly Cloudy,350,2013-07-25 18:54:00
3:54 PM,84.0,69.1,61,29.91,10.0,NNE,6.9,-,N/A,,Mostly Cloudy,20,2013-07-25 19:54:00
4:54 PM,87.1,68.0,53,29.91,10.0,North,6.9,-,N/A,,Clear,360,2013-07-25 20:54:00
5:54 PM,86.0,68.0,55,29.92,10.0,North,10.4,17.3,N/A,,Clear,360,2013-07-25 21:54:00
6:54 PM,84.0,68.0,58,29.92,10.0,North,9.2,-,N/A,,Partly Cloudy,360,2013-07-25 22:54:00
7:54 PM,81.0,68.0,65,29.94,10.0,North,5.8,-,N/A,,Clear,10,2013-07-25 23:54:00
8:54 PM,78.1,69.1,74,29.96,10.0,NE,5.8,-,N/A,,Clear,40,2013-07-26 00:54:00
9:54 PM,77.0,68.0,74,29.98,9.0,NNE,4.6,-,N/A,,Clear,30,2013-07-26 01:54:00
10:54 PM,75.0,68.0,79,30.00,10.0,NNE,3.5,-,N/A,,Clear,30,2013-07-26 02:54:00
11:54 PM,73.9,69.1,85,30.01,9.0,NE,4.6,-,N/A,,Clear,40,2013-07-26 03:54:00